GW0664 Weather Reports


time (UTC)temp
F
wind
direction
speed
knots
gust
knots
rain 1hr
in
rain 24hr
in
rain mn
in
humidity
%
barometer
mb
20260505101542 37 345 7.0 9.6 0.00 0.00 0.00 56 1018.5
20260505100041 37 345 5.2 7.8 0.00 0.00 0.00 54 1018.4
20260505094538 37 345 3.5 5.2 0.00 0.00 0.00 54 1018.3
20260505093048 37 345 3.5 4.3 0.00 0.00 0.00 54 1018.1
20260505091546 37 345 1.7 3.5 0.00 0.00 0.00 54 1018.1
20260505090047 37 345 1.7 4.3 0.00 0.00 0.00 53 1018.0
20260505084550 37 345 4.3 7.0 0.00 0.00 0.00 53 1018.0
20260505083039 39 100 0.0 2.6 0.00 0.00 0.00 53 1017.9
20260505081548 39 100 0.9 2.6 0.00 0.00 0.00 53 1018.0
20260505080052 39 100 1.7 5.2 0.00 0.00 0.00 53 1017.9
20260505074549 39 96 1.7 5.2 0.00 0.00 0.00 54 1018.0
20260505073100 38 107 2.6 3.5 0.00 0.00 0.00 54 1018.1
20260505071541 39 106 0.9 2.6 0.00 0.00 0.00 52 1018.0
20260505070042 38 0 0.0 1.7 0.00 0.00 0.00 53 1017.9
20260505064547 39 107 1.7 3.5 0.00 0.00 0.00 50 1017.9
20260505063046 40 106 0.9 2.6 0.00 0.00 0.00 52 1017.8
20260505061550 40 106 1.7 3.5 0.00 0.00 0.00 52 1017.7
20260505060042 40 106 1.7 5.2 0.00 0.00 0.00 51 1017.4
20260505054559 40 106 1.7 3.5 0.00 0.00 0.00 51 1017.1
20260505053101 40 105 2.6 5.2 0.00 0.00 0.00 51 1017.0
20260505051546 40 104 3.5 5.2 0.00 0.00 0.00 50 1017.3
20260505041555 40 106 6.1 8.7 0.00 0.00 0.00 47 1016.9
20260505040050 41 92 7.0 9.6 0.00 0.00 0.00 46 1016.7
20260505034545 41 83 6.1 9.6 0.00 0.00 0.00 42 1016.6
20260505033040 43 79 9.6 18.2 0.00 0.00 0.00 39 1016.5
20260505031551 44 345 9.6 13.9 0.00 0.00 0.00 36 1016.0
20260505030049 46 345 10.4 14.8 0.00 0.00 0.00 34 1016.0
20260505024545 47 345 11.3 16.5 0.00 0.00 0.00 32 1015.8
20260505023049 48 345 13.9 20.9 0.00 0.00 0.00 29 1015.7
20260505021542 49 345 12.2 19.1 0.00 0.00 0.00 27 1015.6
20260505020041 51 345 14.8 25.2 0.00 0.00 0.00 25 1015.5
20260505014540 53 345 18.2 22.6 0.00 0.00 0.00 22 1015.2
20260505013104 53 345 17.4 20.9 0.00 0.00 0.00 21 1015.2
20260505011547 53 345 19.1 25.2 0.00 0.00 0.00 22 1015.2
20260505010046 53 345 18.2 25.2 0.00 0.00 0.00 23 1015.2
20260505004555 54 345 20.0 26.9 0.00 0.00 0.00 22 1015.2
20260505003047 54 345 17.4 27.8 0.00 0.00 0.00 23 1015.2
20260505001551 55 345 14.8 27.8 0.00 0.00 0.00 24 1015.1
20260505000056 55 345 20.0 26.9 0.00 0.00 0.00 23 1015.2
20260504234544 55 345 19.1 26.9 0.00 0.00 0.00 23 1015.2
20260504233043 55 16 21.7 27.8 0.00 0.00 0.00 24 1015.3
20260504231539 54 345 15.6 21.7 0.00 0.00 0.00 26 1015.3
20260504230055 53 345 19.1 23.5 0.00 0.00 0.00 30 1015.5
20260504224546 53 345 16.5 24.3 0.00 0.00 0.00 31 1015.5
20260504223037 53 345 13.9 22.6 0.00 0.00 0.00 32 1015.5
20260504221559 52 345 15.6 21.7 0.00 0.00 0.00 34 1015.6
20260504220055 52 345 17.4 26.9 0.00 0.00 0.00 34 1015.8
20260504214538 53 345 17.4 30.4 0.00 0.00 0.00 33 1015.8
20260504213046 53 345 18.2 29.5 0.00 0.00 0.00 33 1015.9
20260504211548 53 345 19.1 29.5 0.00 0.00 0.00 32 1015.8
20260504210047 52 345 15.6 28.7 0.00 0.00 0.00 32 1015.7
20260504204541 53 345 18.2 29.5 0.00 0.00 0.00 32 1015.9
20260504203041 54 345 17.4 29.5 0.00 0.00 0.00 31 1015.6
20260504201550 53 345 14.8 27.8 0.00 0.00 0.00 34 1015.6
20260504200047 52 345 14.8 28.7 0.00 0.00 0.00 36 1015.6
20260504194544 52 345 20.0 26.1 0.00 0.00 0.00 35 1015.8
20260504193042 53 345 18.2 26.1 0.00 0.00 0.00 35 1015.8
20260504191541 53 345 18.2 23.5 0.00 0.00 0.00 36 1015.8
20260504190046 52 345 19.1 26.1 0.00 0.00 0.00 35 1015.7
20260504184546 52 360 20.9 28.7 0.00 0.00 0.00 37 1015.8
20260504183047 53 345 18.2 26.1 0.00 0.00 0.00 39 1015.7
20260504181545 53 345 17.4 26.1 0.00 0.00 0.00 38 1015.7
20260504180042 53 345 15.6 25.2 0.00 0.00 0.00 40 1015.8
20260504174539 53 345 14.8 25.2 0.00 0.00 0.00 40 1015.7
20260504173049 54 345 17.4 23.5 0.00 0.00 0.00 40 1015.6
20260504171548 53 345 15.6 22.6 0.00 0.00 0.00 40 1015.5